Regional Weather Roundup
Issued by NWS Charleston, SC

Current Version | Previous Version | Text Only | Print | Product List | Glossary Off
Versions: 1 2 3 4 5 6 7 8 9 10 11 12 13 14 15 16 17 18 19 20 21 22 23 24 25 26 27 28 29 30 31 32 33 34 35 36 37 38 39 40 41 42 43 44 45 46 47 48 49 50

000
ASUS42 KCHS 021812
RWRCHS
REGIONAL WEATHER ROUNDUP
NATIONAL WEATHER SERVICE CHARLESTON SC
200 PM EDT WED SEP 02 2015

NOTE: "FAIR" INDICATES FEW OR NO CLOUDS BELOW 12,000 FEET WITH NO
SIGNIFICANT WEATHER AND/OR OBSTRUCTIONS TO VISIBILITY.

NOT ALL STATIONS ARE QUALITY CONTROLLED BY THE NATIONAL
WEATHER SERVICE. USE DATA WITH CAUTION...ESPECIALLY
DEWPOINT OBSERVATIONS.

SCZ027-030-031-034>040-042>050-021900-
...SOUTHEAST SOUTH CAROLINA...

CITY           SKY/WX    TMP DP  RH WIND       PRES   REMARKS
N CHARLESTON   PTSUNNY   90  70  51 CALM      30.05F HX  95
6HR MIN TEMP:  77; 6HR MAX TEMP:  90;

WATERFRONT PRK   N/A     86  76  72 SE7       30.05F HX  96
MOUNT PLEASANT FAIR      90  73  58 SE6       30.06F HX  98
JOHNS ISLAND   FAIR      88  75  66 SE9       30.06F HX  97
PINOPOLIS        N/A     91  72  52 CALM      30.00F HX  98
MONCKS CORNER  FAIR      91  72  52 CALM      30.05F HX  98
SUMMERVILLE    NOT AVBL
BEAUFORT MCAS  PTSUNNY   89  74  60 E3        30.06F HX  98
6HR MIN TEMP:  77; 6HR MAX TEMP:  90;

BEAUFORT ARPT  FAIR      88  75  66 CALM      30.06F HX  97
HILTON HEAD IS MOSUNNY   84  79  84 SE6       30.08F HX  96
WALTERBORO     MOCLDY    90  70  51 SE7       30.06F HX  95
ALLENDALE      FAIR      90  70  51 VRB3      30.05S HX  95

...SOUTHERN MIDLANDS AND PEE DEE...

CITY           SKY/WX    TMP DP  RH WIND       PRES   REMARKS
GEORGETOWN     NOT AVBL
KINGSTREE      NOT AVBL
ORANGEBURG     MOSUNNY   91  68  46 SW5       30.05F HX  95
6HR MIN TEMP:  74; 6HR MAX TEMP:  91;

BARNWELL       FAIR      91  70  49 E3        30.06F HX  97
AIKEN          FAIR      90  61  37 S3        30.10F
MANNING        MOCLDY    88  66  48 NW3       30.05F HX  90
COLUMBIA       PTSUNNY   91  67  44 CALM      30.04F HX  94
6HR MIN TEMP:  74; 6HR MAX TEMP:  94;

SUMTER         MOSUNNY   90  69  49 VRB3      30.03F HX  94
6HR MIN TEMP:  76; 6HR MAX TEMP:  92;

FLORENCE       MOSUNNY   92  68  45 VRB5      30.05F HX  96
6HR MIN TEMP:  75; 6HR MAX TEMP:  93;

MYRTLE BEACH   PTSUNNY   90  73  58 S12       30.07F HX  98
N MYRTLE BEACH PTSUNNY   88  75  65 S10       30.04F HX  97
6HR MIN TEMP:  76; 6HR MAX TEMP:  90;


$$

GAZ063-065-086>088-099>101-113>116-118-119-134>141-150-021900-
...SOUTHEAST GEORGIA...

CITY           SKY/WX    TMP DP  RH WIND       PRES   REMARKS
SAVANNAH ARPT  CLOUDY    84  73  69 E10       30.06F HX  90
6HR MIN TEMP:  76; 6HR MAX TEMP:  90;

HUNTER AAF     CLOUDY    80  78  92 E8        30.05S THUNDER
6HR MIN TEMP:  77; 6HR MAX TEMP:  87; 6HR PCP: TRACE;

FORT STEWART   CLOUDY    85  75  71 SE2       30.04F HX  94
6HR MIN TEMP:  75; 6HR MAX TEMP:  86; 6HR PCP: TRACE;

STATESBORO     PTSUNNY   86  77  73 CALM      30.06F HX  97
SYLVANIA       MOCLDY    89  74  61 CALM      30.07F HX  99
CLAXTON        NOT AVBL

...CSRA...CENTRAL AND FAR SOUTHEAST GEORGIA...

CITY           SKY/WX    TMP DP  RH WIND       PRES   REMARKS
THOMSON        MOSUNNY   91  72  53 CALM      30.11F HX  99
AUGUSTA-BUSH   MOSUNNY   90  70  51 VRB5      30.04F HX  95
6HR MIN TEMP:  70; 6HR MAX TEMP:  92;

AUGUSTA-DANIEL MOSUNNY   91  69  48 VRB6      30.07F HX  96
SWAINSBORO     FAIR      90  66  45 SE6       30.07F HX  92
VIDALIA        PTSUNNY   82  73  74 CALM      30.07F
EASTMAN        FAIR      85  73  65 CALM      30.09F HX  92
HAZLEHURST     MOCLDY    85  76  75 N8        30.05F HX  94
ALMA           PTSUNNY   83  74  74 E9        30.04F
6HR MIN TEMP:  76; 6HR MAX TEMP:  83; 6HR PCP:  0.05;

WAYCROSS       CLOUDY    84  80  89 E9        30.04F HX  98
JESUP          MOCLDY    86  79  79 SE5       30.06F HX  99
BAXLEY         CLOUDY    84  77  79 E7        30.05F HX  94
BRUNSWICK      CLOUDY    82  75  78 E9        30.07F
SAINT SIMONS   CLOUDY    83  75  77 NE6       30.06F HX  90
6HR MIN TEMP:  78; 6HR MAX TEMP:  85; 6HR PCP:  0.03;


$$

SCZ027-028-034-036>038-045-046-048>050-GAZ119-141-021900-
...LAKE AND SUPPLEMENTAL COASTAL OBSERVATIONS...

STATION/POSITION TIME  TEMP    WIND        PRES    WAVE   SWELL
                       AIR SEA DIR/SP/G            HT/PER HT/PER/DIR
                 (UTC) (F)     (DEG/KT/KT) (MB)    (FT/S) (FT/S/D)
UPR LAKE MARION  NOT AVBL
WINYAH BAY       NOT AVBL
LAKE MURRAY      1700   85     170/  4/  5 1017.6F
ACE BASIN NERRS  NOT AVBL
FORT PULASKI     1700   82 83   90/  4/  4 1019.0F
SAPELO ISLAND    1700   76     160/  6     1019.0S

$$

ANZ835-935-AMZ111-154-330-350-352-354-370-450-454-472-021900-
...C-MAN AND BUOY OBSERVATIONS...

STATION/POSITION TIME  TEMP    WIND        PRES    WAVE   SWELL
                       AIR SEA DIR/SP/G            HT/PER HT/PER/DIR
                 (UTC) (F)     (DEG/KT/KT) (MB)    (FT/S) (FT/S/D)
BUOY 41004       1750   82 85  140/  2/  2 1018.0F   2/ 9   2/ 9
BUOY 41008       1750   76 84  330/ 12/ 17 1019.0R   2/10   2/300/10
FOLLY BEACH CMAN 1700   84     130/  5/  6 1018.7F
CAPERS NEARSHORE 1708   83     140/  4/  6 1018.5F
FRIPP NEARSHORE  1700   87      90/  2/  4 1018.3F


STATION/POSITION TIME  TEMP    WIND        PRES    WAVE   SWELL
                       AIR SEA DIR/SP/G            HT/PER HT/PER/DIR
                 (UTC) (F)     (DEG/KT/KT) (MB)    (FT/S) (FT/S/D)
5E ST. MARYS GA  1721      86                N/A     2/10
FRYING PAN BUOY  1750   82 83  230/  6/  8 1018.3F   2/ 8   2/150/ 8
BUOY 41025       1750   81 85  360/  4/  6 1017.1F   2/ 8   2/120/ 8
CAPE LOOKOUT NC  1700   81     130/  6/  6 1017.1F
BUOY 41002       1750   83 84  280/ 10/ 12 1017.3F   2/ 8   2/ 90/ 8
BUOY 41010       1720   84 87  310/  4/  4 1019.1F
ST AUGUSTINE FL  1800   83 83  120/  8/  9 1018.4F


$$


USA.gov is the U.S. government's official web portal to all federal, state and local government web resources and services.